Location: 相模原市立博物館
(35.5593°N, 139.3931°E)
Time: 05:37:27
(UTC+09:00)

AAUSAT CUBESAT 2 - Visible Passes

Search period start: 22 January 2022 00:00
Search period end: 01 February 2022 00:00
Orbit: 571 x 586 km, 97.5° (Epoch: 21 January)

Date Brightness Start Highest point End Pass type
(mag) Time Alt. Az. Time Alt. Az. Time Alt. Az.
22 Jan ? 03:56:47 10° NE 04:03:34 - SSE 03:57:09 12° NE visible
22 Jan ? 05:31:50 10° NNW 05:39:52 - SW 05:33:28 19° NW visible
23 Jan ? 04:01:08 10° NE 04:08:14 - SSE 04:01:56 14° NE visible
23 Jan ? 05:36:30 10° NNW 05:44:33 - SW 05:38:16 18° NW visible
24 Jan ? 04:05:31 10° NE 04:12:54 - SSE 04:06:44 17° NE visible
24 Jan ? 05:41:11 10° NNW 05:49:12 - SW 05:43:03 18° NW visible
25 Jan ? 04:09:54 10° NNE 04:17:33 - SSE 04:11:32 20° NE visible
25 Jan ? 05:45:55 10° NNW 05:53:51 - SW 05:47:51 16° NW visible
26 Jan ? 04:14:19 10° NNE 04:22:11 - SSE 04:16:21 24° NE visible
26 Jan ? 05:50:40 10° NNW 05:52:40 15° WNW 05:52:40 15° WNW visible
27 Jan ? 04:18:44 10° NNE 04:26:48 - S 04:21:10 29° NE visible
27 Jan ? 05:55:28 10° NW 05:57:30 14° WNW 05:57:30 14° WNW visible
28 Jan ? 04:23:10 10° NNE 04:31:25 - S 04:26:00 36° NE visible
28 Jan ? 06:00:23 10° NW 06:02:00 12° WNW 06:02:20 12° WNW visible
29 Jan ? 04:27:36 10° NNE 04:36:01 - S 04:30:51 45° ENE visible
29 Jan ? 06:05:34 10° NW 06:06:26 11° WNW 06:07:10 10° WNW visible
30 Jan ? 04:32:04 10° NNE 04:40:34 - S 04:35:43 57° ENE visible
31 Jan ? 04:36:31 10° NNE 04:45:08 - S 04:40:35 71° E visible
